This demonstration page uses our WeatherBlox Daily Observations layout. Learn more.

Left ArrowRight Arrow

44.8408, -93.29828

Hourly Observations for October 3, 2021

Temp ( °F °C ) Dew Point ( °F °C ) Humidity (%) Winds ( mph kmh ) Pressure ( in mb ) Visibility ( mi km ) Precip ( " mm )
12:53 am 00:53 Cloudy 65 18.3 59 15 81 81 N 9 15 29.89 1012 10 16 N/A
1:53 am 01:53 Cloudy 64 17.8 58 14.4 81 81 NNW 6 9 29.89 1012 10 16 N/A
2:04 am 02:04 Cloudy 64 17.8 59 15 84 84 NW 8 13 29.89 1012 10 16 N/A
2:53 am 02:53 Partly Cloudy 62 16.7 59 15 90 90 NW 7 11 29.89 1012 10 16 N/A
3:53 am 03:53 Mostly Cloudy 61 16.1 58 14.4 90 90 NW 7 11 29.89 1012 10 16 N/A
4:53 am 04:53 Mostly Cloudy 60 15.6 57 13.9 90 90 NW 7 11 29.90 1012 10 16 N/A
5:53 am 05:53 Clear 59 15 56 13.3 90 90 NNW 9 15 29.91 1013 10 16 N/A
6:28 am 06:28 Mostly Cloudy 58 14.4 56 13.3 93 93 NNW 8 13 29.92 1013 10 16 N/A
6:53 am 06:53 Mostly Cloudy 58 14.4 55 12.8 90 90 NNW 9 15 29.92 1013 10 16 N/A
7:53 am 07:53 Partly Cloudy 57 13.9 54 12.2 90 90 NW 8 13 29.93 1014 9 14 N/A
8:53 am 08:53 Partly Cloudy 58 14.4 54 12.2 87 87 NNW 8 13 29.94 1014 10 16 N/A
9:25 am 09:25 Mostly Cloudy 59 15 55 12.8 87 87 N 7 11 29.94 1014 10 16 N/A
9:53 am 09:53 Mostly Cloudy 62 16.7 56 13.3 80 80 N 8 13 29.94 1014 10 16 N/A
10:00 am 10:00 Partly Cloudy 62 16.7 56 13.3 80 80 N 6 9 29.94 1014 10 16 N/A
10:14 am 10:14 Mostly Cloudy 62 16.7 56 13.3 80 80 NNW 9 15 29.94 1014 10 16 N/A
10:53 am 10:53 Mostly Cloudy 63 17.2 56 13.3 78 78 NW 10 17 29.94 1014 10 16 N/A
11:53 am 11:53 Mostly Cloudy 66 18.9 57 13.9 73 73 NNW 10 17 29.94 1014 10 16 N/A
12:53 pm 12:53 Mostly Cloudy 68 20 57 13.9 68 68 NNW 13 20 29.93 1014 10 16 N/A
1:53 pm 13:53 Mostly Cloudy 69 20.6 57 13.9 66 66 NNW 9 15 29.93 1013 10 16 N/A
2:53 pm 14:53 Mostly Cloudy 70 21.1 54 12.2 57 57 NNW 10 17 29.92 1013 10 16 N/A
3:00 pm 15:00 Mostly Cloudy 71 21.7 55 12.8 57 57 N 8 13 29.90 1013 10 16 N/A
3:53 pm 15:53 Mostly Sunny 72 22.2 53 11.7 52 52 N 9 15 29.92 1013 10 16 N/A
4:53 pm 16:53 Mostly Sunny 72 22.2 52 11.1 50 50 NNW 9 15 29.92 1013 10 16 N/A
7:30 pm 19:30 Mostly Clear 64 18 50 10 60 60 NW 5 7 29.94 1014 10 16 N/A
7:35 pm 19:35 Mostly Clear 64 18 50 10 60 60 NNW 5 7 29.94 1014 10 16 N/A
7:55 pm 19:55 Clear 64 18 52 11 64 64 NE 3 6 29.95 1014 10 16 N/A
8:53 pm 20:53 Clear 61 16.1 52 11.1 72 72 NNW 3 6 29.97 1015 10 16 N/A
9:53 pm 21:53 Clear 61 16.1 55 12.8 81 81 N N/A 29.98 1015 10 16 N/A
10:53 pm 22:53 Clear 58 14.4 53 11.7 84 84 N N/A 29.99 1016 10 16 N/A
11:53 pm 23:53 Clear 56 13.3 52 11.1 87 87 WNW 3 6 29.99 1016 9 14 N/A

Powered by AerisWeather